Location: Unspecified
(0.0000°N, 0.0000°E)
Time: 21:24:04
(UTC+00:00)

USA 276 - Visible Passes

Search period start: 04 June 2023 00:00
Search period end: 14 June 2023 00:00
Orbit: 366 x 369 km, 50.0° (Epoch: 12 July)

Date Brightness Start Highest point End Pass type
(mag) Time Alt. Az. Time Alt. Az. Time Alt. Az.
04 Jun 2.7 19:24:25 10° SW 19:26:37 45° W 19:26:37 45° W visible
06 Jun 2.1 18:29:29 10° SW 18:32:08 67° NW 18:34:51 10° NNE visible
07 Jun 5.5 18:51:17 10° WNW 18:52:04 11° NW 18:52:53 10° NW visible
09 Jun 4.0 04:57:04 10° NNW 04:59:45 31° NE 05:02:25 10° ESE visible
10 Jun 2.5 05:16:48 10° WNW 05:19:35 36° SW 05:22:19 10° SSE visible
11 Jun 4.9 04:06:20 15° ESE 04:06:20 15° ESE 04:07:04 10° ESE visible
